1532106000.58,22027,20.38,74060.8,9.65,-15.63,-16.09,0,*7D
1532106001.83,22028,20.38,74060.3,9.67,-15.57,-16.17,0,*78
1532106003.08,22029,20.38,74060.0,9.67,-15.85,-16.51,0,*74
1532106004.33,22030,20.38,74062.3,9.65,-15.75,-16.51,0,*71
1532106005.55,22031,20.38,74062.5,9.63,-16.13,-16.83,0,*7A
1532106006.77,22032,20.38,74056.3,9.63,-16.31,-16.83,0,*79
1532106008.03,22033,20.38,74058.3,9.65,-16.17,-16.79,0,*7F
1532106009.31,22034,20.38,74056.8,9.65,-16.09,-16.69,0,*76
1532106010.53,22035,20.38,74058.8,9.65,-15.95,-16.55,0,*7E
1532106011.73,22036,20.38,74056.5,9.63,-15.95,-16.59,0,*77
1532106012.96,22037,20.38,74058.0,9.63,-15.81,-16.55,0,*7F
1532106014.18,22038,20.38,74060.0,9.63,-15.85,-16.55,0,*74
1532106015.37,22039,20.38,74056.3,9.63,-15.71,-16.37,0,*7A
1532106016.6,22040,20.38,74058.5,9.63,-16.09,-16.75,0,*7E
1532106017.86,22041,20.38,74056.8,9.61,-16.13,-16.83,0,*7F
1532106019.11,22042,20.38,74058.3,9.61,-15.95,-16.69,0,*75
1532106020.36,22043,20.38,74058.0,9.59,-15.57,-16.13,0,*7C
1532106021.58,22044,20.38,74056.0,9.59,-15.49,-16.31,0,*74
1532106022.81,22045,20.38,74056.8,9.61,-15.67,-16.55,0,*70
1532106024.08,22046,20.38,74058.3,9.61,-15.57,-16.69,0,*7F
1532106025.31,22047,20.38,74058.0,9.61,-15.53,-16.59,0,*79
1532106026.53,22048,20.38,74058.0,9.59,-15.49,-16.51,0,*7E
1532106027.73,22049,20.38,74058.3,9.59,-15.29,-16.41,0,*78
1532106028.96,22050,20.38,74056.5,9.59,-15.25,-16.13,0,*7B
1532106030.18,22051,20.38,74056.0,9.59,-15.49,-16.51,0,*76
1532106031.37,22052,20.38,74056.5,9.59,-16.03,-16.93,0,*76
1532106032.58,22053,20.38,74060.0,9.59,-15.63,-16.59,0,*74
1532106033.8,22054,20.38,74058.8,9.61,-15.53,-16.45,0,*76
1532106035.05,22055,20.38,74058.5,9.55,-16.23,-17.07,0,*73
1532106036.3,22056,20.38,74062.3,9.57,-15.81,-16.55,0,*7F
1532106037.53,22057,20.38,74056.5,9.55,-16.45,-17.07,0,*71
1532106038.75,22058,20.38,74058.5,9.55,-16.45,-17.21,0,*7A
1532106040.0,22059,20.38,74062.8,9.55,-16.51,-17.11,0,*7D
1532106041.21,22060,20.38,74060.0,9.55,-16.23,-16.93,0,*79
1532106042.46,22061,20.38,74058.3,9.49,-16.55,-17.17,0,*79
1532106043.72,22062,20.38,74056.3,9.49,-16.59,-17.07,0,*77
1532106044.97,22063,20.38,74054.0,9.49,-16.31,-16.75,0,*7C
1532106046.24,22064,20.38,74056.3,9.49,-15.89,-16.31,0,*7B
1532106047.46,22065,20.38,74054.8,9.53,-15.49,-15.99,0,*7C
1532106048.73,22066,20.38,74058.0,9.53,-15.57,-16.13,0,*71
1532106049.98,22067,20.38,74054.0,9.53,-15.81,-16.59,0,*75
1532106051.23,22068,20.38,74058.3,9.53,-16.09,-16.89,0,*74
1532106052.49,22069,20.38,74056.3,9.49,-16.13,-16.79,0,*7A
1532106053.73,22070,20.38,74058.8,9.53,-15.71,-16.27,0,*75
1532106055.0,22071,20.38,74056.5,9.53,-15.81,-16.23,0,*7F
1532106056.28,22072,20.44,74060.5,9.49,-15.89,-16.27,0,*7B
1532106057.5,22073,20.38,74056.3,9.53,-15.71,-15.99,0,*70
1532106058.73,22074,20.38,74056.3,9.49,-15.29,-15.25,0,*76
1532106059.95,22075,20.38,74054.5,9.53,-14.69,-14.33,0,*7F
1532106061.19,22076,20.38,74058.3,9.49,-14.01,-13.69,0,*71
1532106062.42,22077,20.38,74056.3,9.49,-13.73,-13.55,0,*7D
1532106063.64,22078,20.38,74058.0,9.49,-13.11,-13.51,0,*72
1532106064.89,22079,20.38,74062.3,9.49,-12.29,-13.97,0,*73
1532106066.15,22080,20.38,74060.5,9.49,-12.11,-14.65,0,*74
1532106067.38,22081,20.38,74058.3,9.49,-12.25,-15.25,0,*77
1532106068.63,22082,20.38,74056.0,9.49,-12.89,-16.13,0,*74
1532106069.91,22083,20.38,74056.5,9.49,-13.29,-16.13,0,*7E
1532106071.15,22084,20.38,74058.0,9.49,-13.69,-16.31,0,*7D
1532106072.41,22085,20.38,74056.5,9.49,-14.01,-16.55,0,*77
1532106073.63,22086,20.44,74056.8,9.49,-14.37,-16.45,0,*70
1532106074.88,22087,20.44,74058.8,9.49,-14.37,-16.31,0,*72
1532106076.16,22088,20.38,74056.8,9.49,-14.55,-16.31,0,*79
1532106077.4,22089,20.38,74058.5,9.49,-14.65,-16.17,0,*7F
1532106078.66,22090,20.38,74056.8,9.47,-14.43,-15.89,0,*79
1532106079.85,22091,20.44,74060.3,9.47,-15.25,-16.79,0,*75
1532106081.05,22092,20.44,74058.5,9.47,-15.29,-16.55,0,*74
1532106082.24,22093,20.38,74058.0,9.47,-15.11,-16.45,0,*7F
1532106083.51,22094,20.38,74056.3,9.45,-14.93,-16.23,0,*71
1532106084.79,22095,20.38,74054.0,9.49,-14.55,-15.85,0,*79
1532106086.02,22096,20.38,74054.3,9.47,-14.23,-15.43,0,*7F
1532106087.27,22097,20.38,74058.0,9.47,-14.43,-16.13,0,*7E
1532106088.52,22098,20.38,74058.3,9.45,-15.15,-16.69,0,*7C
1532106089.77,22099,20.44,74062.8,9.45,-15.21,-16.83,0,*7E
1532106091.01,22100,20.38,74052.8,9.47,-14.43,-15.89,0,*71
1532106092.26,22101,20.38,74056.0,9.45,-14.61,-16.51,0,*74
1532106093.49,22102,20.44,74058.0,9.45,-14.33,-16.03,0,*77
1532106094.72,22103,20.38,74056.8,9.45,-13.69,-15.29,0,*75
1532106095.99,22104,20.38,74056.0,9.45,-13.61,-15.49,0,*7C
1532106097.21,22105,20.38,74056.8,9.47,-13.43,-15.57,0,*70
1532106098.46,22106,20.38,74054.5,9.45,-13.47,-15.57,0,*75
1532106099.71,22107,20.44,74058.5,9.45,-13.61,-15.75,0,*70
1532106101.0,22108,20.44,74056.8,9.45,-14.01,-16.17,0,*79
1532106102.26,22109,20.44,74056.3,9.45,-13.93,-16.17,0,*74
1532106103.52,22110,20.44,74056.3,9.43,-14.05,-16.09,0,*7D
1532106104.8,22111,20.44,74058.0,9.45,-13.61,-15.81,0,*7C
1532106106.06,22112,20.38,74056.8,9.45,-13.69,-15.81,0,*77
1532106107.3,22113,20.44,74056.8,9.45,-13.19,-15.29,0,*73
1532106108.58,22114,20.38,74058.3,9.45,-13.01,-15.21,0,*75
1532106109.83,22115,20.44,74058.0,9.43,-12.71,-14.93,0,*7C
1532106111.08,22116,20.44,74058.0,9.43,-13.61,-16.31,0,*75
1532106112.31,22117,20.44,74058.8,9.43,-13.79,-16.03,0,*7C
1532106113.56,22118,20.44,74058.0,9.43,-13.61,-15.57,0,*78
1532106114.82,22119,20.44,74056.3,9.43,-13.33,-15.81,0,*75
1532106116.1,22120,20.44,74058.0,9.41,-13.79,-15.85,0,*77
1532106117.3,22121,20.44,74058.5,9.43,-13.73,-15.67,0,*72
1532106118.52,22122,20.38,74056.8,9.41,-13.73,-15.67,0,*73
1532106119.76,22123,20.44,74058.0,9.41,-13.23,-15.11,0,*76
1532106120.98,22124,20.44,74056.5,9.43,-13.15,-15.35,0,*70
1532106122.21,22125,20.38,74058.8,9.43,-13.07,-15.43,0,*73
1532106123.46,22126,20.44,74056.0,9.41,-13.07,-15.21,0,*76
1532106124.67,22127,20.38,74056.0,9.43,-13.11,-15.49,0,*7C
1532106125.88,22128,20.44,74058.5,9.43,-14.33,-16.59,0,*76
1532106127.14,22129,20.44,74058.0,9.43,-13.87,-15.81,0,*79
1532106128.4,22130,20.38,74056.3,9.41,-13.61,-15.53,0,*74
1532106129.66,22131,20.38,74056.8,9.41,-14.11,-16.09,0,*79
1532106130.89,22132,20.44,74058.5,9.43,-14.33,-16.17,0,*77
1532106132.12,22133,20.44,74056.0,9.43,-14.29,-16.09,0,*72
1532106133.38,22134,20.38,74056.5,9.41,-14.23,-16.13,0,*76
1532106134.61,22135,20.44,74056.8,9.43,-14.33,-16.23,0,*77
1532106135.86,22136,20.44,74058.5,9.43,-14.79,-16.51,0,*7F
1532106137.08,22137,20.44,74058.8,9.43,-14.69,-16.23,0,*7A
1532106138.32,22138,20.44,74058.5,9.41,-14.97,-16.37,0,*73
1532106139.57,22139,20.44,74058.3,9.41,-15.67,-17.11,0,*79
1532106140.84,22140,20.44,74056.8,9.41,-14.97,-16.23,0,*79
1532106142.09,22141,20.44,74058.0,9.41,-15.49,-16.65,0,*78
1532106143.32,22142,20.44,74056.8,9.41,-15.07,-15.95,0,*7D
1532106144.57,22143,20.38,74054.5,9.41,-15.07,-16.09,0,*7A
1532106145.82,22144,20.38,74054.5,9.41,-15.07,-16.13,0,*76
1532106147.07,22145,20.44,74058.5,9.39,-15.43,-16.59,0,*76
1532106148.26,22146,20.44,74060.8,9.37,-15.53,-16.79,0,*78
1532106149.48,22147,20.44,74060.3,9.39,-15.25,-16.45,0,*79
1532106150.69,22148,20.44,74060.5,9.37,-15.11,-16.31,0,*7C
1532106151.93,22149,20.44,74058.0,9.39,-15.15,-16.31,0,*77
1532106153.15,22150,20.44,74056.8,9.39,-15.29,-16.45,0,*73
1532106154.34,22151,20.44,74054.3,9.37,-15.15,-16.41,0,*77
1532106155.58,22152,20.44,74056.3,9.35,-15.35,-16.45,0,*70
1532106156.84,22153,20.44,74058.3,9.35,-15.01,-16.31,0,*75
1532106158.08,22154,20.44,74056.3,9.35,-15.01,-16.37,0,*74
1532106159.35,22155,20.44,74056.8,9.35,-14.93,-16.09,0,*72
1532106160.58,22156,20.44,74058.3,9.33,-15.35,-16.75,0,*71
1532106161.77,22157,20.44,74056.8,9.37,-15.25,-16.41,0,*72
1532106163.04,22158,20.44,74058.5,9.35,-15.01,-16.09,0,*75
1532106164.29,22159,20.44,74058.5,9.35,-14.89,-16.23,0,*7D
1532106165.53,22160,20.44,74056.5,9.35,-14.89,-16.31,0,*74
1532106166.76,22161,20.44,74058.5,9.35,-15.01,-16.45,0,*77
1532106167.98,22162,20.44,74058.3,9.33,-15.07,-16.65,0,*76
1532106169.23,22163,20.44,74058.0,9.35,-15.35,-16.75,0,*71
1532106170.48,22164,20.44,74056.8,9.33,-15.01,-16.17,0,*73
1532106171.75,22165,20.44,74056.5,9.35,-14.93,-16.09,0,*71
1532106172.99,22166,20.44,74058.5,9.33,-15.01,-16.31,0,*75
1532106174.21,22167,20.44,74056.3,9.33,-15.21,-16.59,0,*78
1532106175.43,22168,20.44,74056.0,9.35,-15.15,-16.37,0,*7E
1532106176.64,22169,20.44,74054.0,9.33,-15.21,-16.45,0,*7B
1532106177.88,22170,20.44,74056.0,9.31,-15.39,-16.55,0,*79
1532106179.15,22171,20.44,74056.5,9.31,-14.93,-16.23,0,*78
1532106180.39,22172,20.44,74054.8,9.27,-14.69,-16.17,0,*7E
1532106181.62,22173,20.44,74056.8,9.27,-14.65,-16.41,0,*70
1532106182.84,22174,20.44,74058.5,9.31,-14.37,-15.99,0,*71
1532106184.09,22175,20.44,74062.3,9.27,-14.29,-15.85,0,*75
1532106185.3,22176,20.44,74058.0,9.33,-14.33,-15.95,0,*79
1532106186.52,22177,20.44,74058.0,9.33,-14.89,-16.31,0,*74
1532106187.78,22178,20.44,74058.5,9.31,-15.01,-16.13,0,*78
1532106189.03,22179,20.44,74058.8,9.31,-14.61,-15.81,0,*76
1532106190.27,22180,20.44,74058.8,9.31,-14.75,-15.99,0,*7C
1532106191.5,22181,20.44,74062.3,9.31,-14.61,-15.95,0,*74
1532106192.72,22182,20.44,74058.0,9.31,-14.33,-15.67,0,*7D
1532106193.92,22183,20.44,74056.3,9.33,-14.33,-15.71,0,*79
1532106195.14,22184,20.44,74056.3,9.33,-14.89,-16.09,0,*73
1532106196.36,22185,20.44,74058.8,9.33,-14.69,-15.81,0,*7F
1532106197.59,22186,20.44,74058.5,9.33,-14.83,-15.95,0,*7D
1532106198.83,22187,20.44,74056.5,9.31,-14.93,-15.99,0,*73
1532106200.06,22188,20.44,74060.5,9.33,-14.55,-15.63,0,*71
1532106201.29,22189,20.44,74058.3,9.33,-14.83,-16.03,0,*7E
1532106202.53,22190,20.44,74058.0,9.27,-15.11,-16.13,0,*78
1532106203.76,22191,20.44,74056.8,9.31,-15.53,-16.55,0,*7A
1532106204.98,22192,20.44,74058.5,9.31,-14.89,-15.95,0,*70
1532106206.2,22193,20.44,74056.5,9.27,-15.29,-16.45,0,*73
1532106207.45,22194,20.44,74052.5,9.31,-14.79,-15.95,0,*79
1532106208.7,22195,20.44,74056.5,9.27,-15.29,-16.31,0,*76
1532106209.92,22196,20.44,74056.0,9.31,-15.07,-15.99,0,*7F
1532106211.18,22197,20.44,74058.5,9.31,-14.97,-16.13,0,*77
1532106212.44,22198,20.44,74056.3,9.27,-15.43,-16.59,0,*79
1532106213.7,22199,20.44,74054.0,9.31,-15.21,-16.23,0,*76
1532106214.95,22200,20.44,74052.5,9.27,-15.15,-16.17,0,*72
1532106216.2,22201,20.44,74052.0,9.27,-16.03,-17.17,0,*76
1532106217.45,22202,20.44,74056.3,9.27,-15.85,-16.55,0,*7F
1532106218.73,22203,20.44,74052.0,9.27,-15.85,-16.31,0,*7C
1532106219.92,22204,20.44,74052.0,9.25,-15.71,-16.37,0,*74
1532106221.14,22205,20.44,74052.0,9.25,-15.85,-16.45,0,*7B
1532106222.39,22206,20.44,74056.0,9.27,-15.89,-16.41,0,*72
1532106223.62,22207,20.44,74056.0,9.27,-15.71,-16.41,0,*74
1532106224.87,22208,20.44,74056.5,9.27,-15.67,-16.27,0,*7C
1532106226.07,22209,20.44,74052.5,9.25,-16.03,-16.75,0,*79
1532106227.33,22210,20.44,74056.8,9.23,-16.59,-17.07,0,*7C
1532106228.56,22211,20.44,74054.0,9.25,-16.13,-16.59,0,*7F
1532106229.79,22212,20.44,74058.0,9.25,-16.31,-16.75,0,*72
1532106231.04,22213,20.44,74052.3,9.23,-16.17,-16.59,0,*7F
1532106232.24,22214,20.44,74052.8,9.25,-16.03,-16.55,0,*77
1532106233.5,22215,20.44,74054.0,9.23,-16.17,-16.75,0,*77
1532106234.7,22216,20.44,74052.0,9.25,-16.03,-16.55,0,*75
1532106235.89,22217,20.44,74054.0,9.25,-15.99,-16.45,0,*75
1532106237.13,22218,20.44,74054.5,9.23,-16.03,-16.51,0,*79
1532106238.35,22219,20.44,74058.0,9.25,-16.03,-16.51,0,*7E
1532106239.57,22220,20.44,74054.3,9.23,-16.45,-16.89,0,*75
1532106240.83,22221,20.44,74054.3,9.23,-16.17,-16.75,0,*70
1532106242.09,22222,20.44,74056.3,9.23,-16.09,-16.75,0,*7C
1532106243.34,22223,20.44,74056.0,9.23,-15.63,-16.31,0,*72
1532106244.59,22224,20.44,74056.3,9.25,-15.43,-16.17,0,*75
1532106245.84,22225,20.44,74056.0,9.23,-15.75,-16.51,0,*75
1532106247.06,22226,20.44,74056.3,9.25,-15.57,-16.41,0,*71
1532106248.34,22227,20.44,74056.5,9.23,-15.35,-16.17,0,*71
1532106249.61,22228,20.44,74056.3,9.23,-15.21,-16.09,0,*74
1532106250.85,22229,20.44,74058.3,9.25,-15.57,-16.51,0,*7F
1532106252.08,22230,20.44,74052.0,9.23,-15.71,-16.79,0,*7F
1532106253.33,22231,20.44,74056.8,9.21,-15.57,-16.65,0,*75
1532106254.56,22232,20.44,74054.3,9.21,-15.57,-16.75,0,*77
1532106255.81,22233,20.44,74052.5,9.19,-15.53,-16.65,0,*78
1532106257.01,22234,20.44,74054.5,9.21,-15.75,-16.79,0,*7D
1532106258.26,22235,20.44,74054.3,9.19,-15.95,-16.69,0,*78
1532106259.51,22236,20.44,74058.5,9.19,-15.63,-16.65,0,*7E
1532106260.72,22237,20.44,74054.3,9.21,-15.63,-16.59,0,*7B
1532106261.97,22238,20.44,74056.0,9.19,-15.35,-16.55,0,*70
1532106263.22,22239,20.44,74054.0,9.19,-14.89,-16.23,0,*76
1532106264.46,22240,20.44,74056.8,9.19,-15.21,-16.55,0,*7A
1532106265.71,22241,20.44,74056.3,9.15,-15.43,-16.97,0,*7D
1532106266.93,22242,20.44,74054.8,9.15,-15.71,-16.83,0,*7A
1532106268.18,22243,20.44,74052.8,9.15,-15.81,-16.75,0,*7D
1532106269.45,22244,20.44,74058.8,9.15,-16.13,-17.17,0,*77
1532106270.7,22245,20.44,74054.8,9.15,-15.81,-16.55,0,*79
1532106271.95,22246,20.44,74056.0,9.15,-15.25,-16.13,0,*76
1532106273.22,22247,20.44,74054.3,9.15,-15.39,-16.27,0,*7D
1532106274.5,22248,20.44,74056.5,9.15,-15.39,-16.17,0,*71
1532106275.73,22249,20.44,74056.5,9.17,-15.29,-16.13,0,*77
1532106276.98,22250,20.44,74058.0,9.17,-15.39,-16.31,0,*7E
1532106278.23,22251,20.44,74052.8,9.15,-15.57,-16.59,0,*7B
1532106279.45,22252,20.44,74052.5,9.17,-15.39,-16.45,0,*7F
1532106280.7,22253,20.44,74058.0,9.17,-15.57,-16.69,0,*78
1532106281.95,22254,20.44,74056.5,9.15,-15.29,-16.27,0,*7E
1532106283.17,22255,20.44,74056.5,9.15,-15.15,-16.03,0,*76
1532106284.39,22256,20.44,74056.0,9.15,-15.29,-16.41,0,*7C
1532106285.64,22257,20.44,74056.5,9.15,-15.57,-16.55,0,*71
1532106286.87,22258,20.44,74052.3,9.15,-15.71,-16.59,0,*76
1532106288.09,22259,20.44,74056.0,9.15,-15.67,-16.55,0,*7C
1532106289.33,22260,20.44,74054.0,9.15,-15.81,-16.55,0,*7E
1532106290.57,22261,20.44,74056.3,9.15,-15.57,-16.45,0,*75
1532106291.83,22262,20.44,74052.5,9.13,-16.17,-17.03,0,*74
1532106293.09,22263,20.44,74054.5,9.11,-16.41,-17.17,0,*71
1532106294.34,22264,20.44,74054.5,9.13,-16.23,-17.03,0,*75
1532106295.61,22265,20.44,74058.3,9.11,-16.51,-17.17,0,*76
1532106296.87,22266,20.44,74058.8,9.11,-16.41,-17.25,0,*75
1532106298.13,22267,20.44,74054.5,9.11,-16.13,-16.79,0,*7B
1532106299.38,22268,20.44,74058.3,9.11,-16.03,-16.65,0,*78
1532106300.63,22269,20.44,74056.5,9.11,-15.95,-16.51,0,*72
1532106301.86,22270,20.44,74058.0,9.11,-15.95,-16.55,0,*7E
1532106303.13,22271,20.44,74058.5,9.11,-15.89,-16.51,0,*76
1532106304.36,22272,20.44,74056.3,9.11,-15.75,-16.37,0,*76
1532106305.59,22273,20.44,74056.8,9.13,-16.17,-16.89,0,*77
1532106306.87,22274,20.44,74052.5,9.11,-16.09,-16.65,0,*7F
1532106308.13,22275,20.44,74058.8,9.11,-16.09,-16.83,0,*76
1532106309.39,22276,20.44,74052.0,9.11,-16.83,-17.45,0,*7C
1532106310.65,22277,20.44,74056.8,9.09,-16.65,-17.07,0,*7A
1532106311.89,22278,20.44,74054.0,9.09,-16.41,-17.07,0,*73
1532106313.11,22279,20.44,74054.8,9.05,-16.45,-16.89,0,*7D
1532106314.37,22280,20.44,74054.5,9.05,-16.31,-16.69,0,*76
1532106315.58,22281,20.44,74056.0,9.05,-15.99,-16.41,0,*7C
1532106316.83,22282,20.44,74054.3,9.09,-15.81,-16.13,0,*7D
1532106318.07,22283,20.44,74056.0,9.05,-16.31,-16.89,0,*7B
1532106319.29,22284,20.44,74050.8,9.05,-16.45,-16.97,0,*70
1532106320.51,22285,20.44,74050.0,9.05,-16.41,-16.83,0,*70
1532106321.76,22286,20.44,74054.8,9.05,-16.31,-16.75,0,*7D
1532106323.0,22287,20.44,74050.3,9.09,-16.23,-16.51,0,*75
1532106324.25,22288,20.44,74054.0,9.05,-16.27,-16.75,0,*74
1532106325.5,22289,20.44,74054.0,9.05,-16.31,-16.59,0,*7C
1532106326.73,22290,20.44,74056.0,9.09,-16.65,-16.97,0,*7B
1532106327.95,22291,20.44,74054.3,9.09,-16.69,-16.93,0,*72
1532106329.19,22292,20.44,74056.3,9.05,-16.31,-16.75,0,*78
1532106330.41,22293,20.44,74054.5,9.09,-16.41,-16.59,0,*7C
1532106331.63,22294,20.44,74054.8,9.09,-16.51,-16.93,0,*7C
1532106332.88,22295,20.5,74056.5,9.05,-16.75,-17.03,0,*7F
1532106334.07,22296,20.44,74052.8,9.03,-16.59,-16.97,0,*78
1532106335.27,22297,20.5,74056.8,9.03,-16.37,-16.79,0,*71
1532106336.49,22298,20.44,74052.0,9.05,-16.45,-16.83,0,*78
1532106337.71,22299,20.44,74054.5,9.03,-16.31,-16.75,0,*75
1532106338.9,22300,20.5,74058.0,9.03,-16.45,-16.89,0,*74
1532106340.1,22301,20.5,74056.8,9.03,-16.45,-16.89,0,*75
1532106341.32,22302,20.44,74052.5,9.05,-16.41,-16.89,0,*74
1532106342.58,22303,20.44,74058.0,9.05,-16.31,-16.69,0,*7C
1532106343.77,22304,20.44,74052.3,9.03,-16.59,-16.93,0,*76
1532106345.02,22305,20.5,74056.0,9.03,-16.65,-17.03,0,*70
1532106346.21,22306,20.44,74050.5,9.03,-16.45,-16.89,0,*72
1532106347.41,22307,20.5,74052.5,9.03,-16.59,-16.93,0,*75
1532106348.63,22308,20.5,74054.3,9.05,-16.45,-16.83,0,*70
1532106349.82,22309,20.44,74048.5,9.03,-16.59,-16.93,0,*7B
1532106351.02,22310,20.44,74052.3,9.03,-16.37,-16.75,0,*73
1532106352.22,22311,20.44,74052.8,9.03,-16.37,-16.79,0,*7E
1532106353.45,22312,20.44,74052.8,9.01,-16.37,-16.75,0,*73
1532106354.7,22313,20.44,74054.0,9.01,-16.79,-17.03,0,*78
1532106355.93,22314,20.44,74050.3,9.01,-16.45,-16.75,0,*70
1532106357.18,22315,20.44,74054.5,9.01,-16.37,-16.65,0,*75
1532106358.41,22316,20.44,74052.3,9.01,-16.45,-16.79,0,*7E
1532106359.66,22317,20.44,74050.3,9.01,-16.65,-16.93,0,*79
1532106360.92,22318,20.5,74052.0,9.01,-16.75,-17.07,0,*7B
1532106362.2,22319,20.5,74054.3,9.01,-16.65,-17.03,0,*7F
1532106363.48,22320,20.44,74054.0,9.01,-16.65,-17.03,0,*75
1532106364.7,22321,20.44,74048.8,8.99,-16.65,-16.93,0,*7C
1532106365.89,22322,20.44,74052.0,8.99,-16.55,-16.93,0,*7C
1532106367.14,22323,20.5,74054.3,8.97,-16.65,-16.97,0,*74
1532106368.34,22324,20.5,74056.0,8.99,-16.41,-16.79,0,*7B
1532106369.54,22325,20.5,74054.3,8.99,-16.55,-16.93,0,*7B
1532106370.75,22326,20.5,74054.3,8.99,-16.69,-16.93,0,*77
1532106371.99,22327,20.44,74050.8,8.97,-16.51,-16.93,0,*73
1532106373.19,22328,20.5,74052.5,8.99,-16.41,-16.79,0,*77
1532106374.45,22329,20.44,74048.8,8.99,-16.69,-17.07,0,*74
1532106375.67,22330,20.44,74048.3,8.99,-16.37,-16.65,0,*72
1532106376.87,22331,20.5,74054.5,8.99,-16.55,-16.83,0,*7F
1532106378.11,22332,20.5,74054.0,8.97,-16.51,-16.93,0,*77
1532106379.33,22333,20.44,74050.8,8.97,-16.79,-16.97,0,*78
1532106380.62,22334,20.5,74054.3,8.97,-16.65,-17.07,0,*7A
1532106381.86,22335,20.44,74052.0,8.97,-16.69,-16.97,0,*7F
1532106383.08,22336,20.5,74052.5,8.95,-16.83,-17.17,0,*73
1532106384.31,22337,20.5,74052.5,8.95,-17.03,-17.35,0,*7B
1532106385.53,22338,20.5,74054.3,8.95,-16.75,-17.11,0,*72
1532106386.73,22339,20.44,74050.3,8.95,-16.97,-17.35,0,*79
1532106387.98,22340,20.5,74054.5,8.93,-17.31,-17.79,0,*74
1532106389.22,22341,20.5,74048.5,8.95,-17.03,-17.25,0,*7B
1532106390.44,22342,20.5,74054.8,8.95,-16.83,-17.11,0,*76
1532106391.69,22343,20.44,74050.3,8.93,-16.51,-16.89,0,*7E
1532106392.91,22344,20.5,74050.8,8.93,-16.59,-16.89,0,*71
1532106394.13,22345,20.5,74052.0,8.93,-16.59,-16.89,0,*70
1532106395.38,22346,20.44,74048.3,8.93,-16.51,-16.79,0,*74
1532106396.62,22347,20.5,74050.5,8.93,-16.51,-16.89,0,*7A
1532106397.87,22348,20.5,74048.3,8.93,-16.75,-17.03,0,*70
1532106399.11,22349,20.44,74046.8,8.93,-16.51,-16.89,0,*74
1532106400.34,22350,20.5,74050.5,8.89,-16.41,-16.79,0,*79
1532106401.57,22351,20.5,74050.0,8.89,-16.41,-16.79,0,*78
1532106402.77,22352,20.5,74048.3,8.91,-16.59,-16.89,0,*74
1532106403.99,22353,20.5,74050.5,8.91,-16.59,-17.03,0,*76
1532106405.22,22354,20.5,74050.0,8.91,-16.51,-16.79,0,*75
1532106406.47,22355,20.5,74048.5,8.89,-16.79,-17.11,0,*78
1532106407.74,22356,20.5,74048.8,8.89,-16.69,-17.11,0,*7A
1532106408.96,22357,20.5,74050.3,8.91,-16.79,-17.21,0,*70
1532106410.21,22358,20.5,74050.0,8.89,-16.51,-16.97,0,*70
1532106411.46,22359,20.5,74054.0,8.89,-16.55,-17.11,0,*7A
1532106412.7,22360,20.5,74050.0,8.89,-16.31,-16.93,0,*79
1532106413.92,22361,20.5,74052.5,8.89,-16.03,-16.55,0,*73
1532106415.15,22362,20.5,74048.3,8.89,-16.03,-16.55,0,*70
1532106416.37,22363,20.5,74052.3,8.89,-15.75,-16.37,0,*77
1532106417.59,22364,20.5,74054.0,8.87,-15.49,-16.31,0,*77
1532106418.81,22365,20.5,74054.8,8.89,-15.49,-16.55,0,*7A
1532106420.03,22366,20.5,74050.8,8.89,-15.75,-16.97,0,*78
1532106421.28,22367,20.5,74052.5,8.87,-16.17,-17.11,0,*7F
1532106422.48,22368,20.5,74050.3,8.87,-16.79,-17.87,0,*77
1532106423.68,22369,20.5,74052.5,8.87,-15.95,-16.79,0,*77
1532106424.95,22370,20.5,74052.5,8.85,-15.57,-16.27,0,*78
1532106426.19,22371,20.5,74054.8,8.87,-15.43,-16.31,0,*79
1532106427.47,22372,20.5,74056.0,8.85,-15.39,-16.27,0,*72
1532106428.69,22373,20.5,74054.5,8.87,-15.81,-16.83,0,*7C
1532106429.94,22374,20.5,74052.5,8.85,-16.09,-16.97,0,*7F
1532106431.22,22375,20.5,74050.3,8.85,-16.27,-17.03,0,*7E
1532106432.47,22376,20.5,74048.8,8.85,-16.23,-16.83,0,*70
1532106433.72,22377,20.5,74054.0,8.85,-16.13,-16.89,0,*78
1532106434.95,22378,20.5,74052.0,8.85,-15.95,-16.55,0,*7B
1532106436.19,22379,20.5,74054.3,8.85,-16.23,-16.97,0,*7A
1532106437.44,22380,20.5,74052.8,8.87,-15.89,-16.51,0,*77
1532106438.66,22381,20.5,74054.3,8.85,-16.55,-17.31,0,*71
1532106439.89,22382,20.5,74052.3,8.85,-16.37,-16.83,0,*7E
1532106441.12,22383,20.5,74048.8,8.85,-16.41,-16.83,0,*7E
1532106442.35,22384,20.5,74054.0,8.85,-16.37,-16.75,0,*71
1532106443.64,22385,20.5,74052.0,8.81,-16.65,-17.07,0,*77
1532106444.89,22386,20.5,74052.3,8.81,-16.51,-16.79,0,*7B
1532106446.18,22387,20.5,74048.8,8.81,-16.65,-17.07,0,*75
1532106447.41,22388,20.5,74048.5,8.79,-16.79,-17.21,0,*74
1532106448.64,22389,20.5,74054.8,8.81,-16.41,-16.79,0,*75
1532106449.89,22390,20.5,74052.0,8.79,-16.65,-17.03,0,*70
1532106451.12,22391,20.5,74052.5,8.81,-16.59,-16.89,0,*7A
1532106452.4,22392,20.5,74052.5,8.81,-16.65,-17.07,0,*71
1532106453.62,22393,20.5,74050.8,8.79,-16.41,-16.75,0,*75
1532106454.82,22394,20.5,74050.3,8.79,-16.59,-16.89,0,*78
1532106456.05,22395,20.5,74054.0,8.81,-16.45,-16.59,0,*7E
1532106457.27,22396,20.5,74048.8,8.79,-16.65,-16.93,0,*7E
1532106458.48,22397,20.5,74048.8,8.79,-16.59,-16.79,0,*74
1532106459.71,22398,20.5,74052.5,8.79,-16.51,-16.75,0,*7F
1532106460.97,22399,20.5,74052.3,8.79,-16.65,-17.07,0,*7D
1532106462.21,22400,20.5,74050.3,8.79,-16.79,-17.07,0,*77
1532106463.44,22401,20.5,74048.5,8.79,-16.51,-16.75,0,*78
1532106464.67,22402,20.5,74050.3,8.79,-16.51,-16.75,0,*7B
1532106465.9,22403,20.5,74050.0,8.79,-16.41,-16.65,0,*7A
1532106467.11,22404,20.5,74048.8,8.79,-16.45,-16.75,0,*78
1532106468.33,22405,20.5,74052.5,8.79,-16.17,-16.45,0,*7D
1532106469.53,22406,20.5,74052.5,8.79,-16.59,-16.89,0,*74
1532106470.78,22407,20.5,74054.8,8.81,-16.51,-16.89,0,*7A
1532106472.01,22408,20.5,74050.8,8.79,-16.17,-16.41,0,*74
1532106473.23,22409,20.5,74050.0,8.79,-16.31,-16.59,0,*78
1532106474.44,22410,20.5,74050.8,8.79,-16.45,-16.79,0,*71
1532106475.66,22411,20.5,74052.3,8.79,-16.65,-16.93,0,*76
1532106476.86,22412,20.5,74050.8,8.79,-16.59,-16.93,0,*7A
1532106478.14,22413,20.5,74054.3,8.77,-16.69,-17.11,0,*7D
1532106479.38,22414,20.5,74052.8,8.77,-16.97,-17.35,0,*7D
1532106480.63,22415,20.5,74054.0,8.77,-16.65,-16.97,0,*78
1532106481.89,22416,20.5,74048.3,8.77,-16.79,-17.11,0,*79
1532106483.11,22417,20.5,74050.8,8.75,-16.55,-16.93,0,*7F
1532106484.36,22418,20.5,74052.5,8.75,-16.79,-17.21,0,*76
1532106485.61,22419,20.5,74050.8,8.75,-16.65,-16.97,0,*76
1532106486.88,22420,20.5,74050.5,8.75,-16.31,-16.69,0,*7C
1532106488.15,22421,20.5,74048.8,8.75,-16.23,-16.65,0,*72
1532106489.41,22422,20.5,74050.3,8.77,-16.09,-16.55,0,*78
1532106490.67,22423,20.5,74048.5,8.77,-16.51,-16.97,0,*7A
1532106491.92,22424,20.5,74048.8,8.75,-16.55,-17.11,0,*74
1532106493.16,22425,20.5,74050.8,8.75,-16.31,-16.93,0,*7C
1532106494.41,22426,20.5,74050.0,8.75,-16.45,-17.07,0,*70
1532106495.69,22427,20.5,74052.3,8.75,-16.09,-16.65,0,*7C
1532106496.91,22428,20.5,74052.8,8.75,-16.45,-16.93,0,*72
1532106498.18,22429,20.5,74050.8,8.75,-16.23,-16.69,0,*76
1532106499.46,22430,20.5,74050.0,8.75,-16.23,-16.65,0,*72
1532106500.68,22431,20.5,74048.8,8.75,-16.37,-16.83,0,*7E
1532106501.91,22432,20.5,74048.5,8.75,-16.37,-16.83,0,*7D
1532106503.18,22433,20.5,74048.3,8.75,-16.17,-16.65,0,*76
1532106504.43,22434,20.5,74046.3,8.75,-16.37,-16.69,0,*7F
1532106505.71,22435,20.5,74050.5,8.75,-16.17,-16.65,0,*70